,,,PA_Meas_PMT16A,,PR_Meas_QMR101_102,,RH_Meas_QMH101,,SR_Meas_QMS101,,TA_Meas_QMH101,,GenWind,,GenWind,
date,time,status,PA,status,PR,status,RH,status,SR,status,TA,status,DirAvg,status,SpdAvg,
2010-12-20, 00:00:04,VALID,1009.07,VALID,0,VALID,104,VALID,0,VALID,24.7055,VALID,284,VALID,0,
2010-12-20, 00:01:04,VALID,1009.05,VALID,0,VALID,104,VALID,0,VALID,24.6666,VALID,284,VALID,0,
2010-12-20, 00:02:04,VALID,1009.05,VALID,0,VALID,104,VALID,0,VALID,24.6666,VALID,284,VALID,0,
2010-12-20, 00:03:04,VALID,1009.02,VALID,0,VALID,104,VALID,0,VALID,24.6684,VALID,284,VALID,0,
2010-12-20, 00:04:04,VALID,1009.06,VALID,0,VALID,104,VALID,0,VALID,24.6684,VALID,284,VALID,0,
2010-12-20, 00:05:04,VALID,1008.99,VALID,0,VALID,104,VALID,0,VALID,24.6471,VALID,284,VALID,0,
2010-12-20, 00:06:04,VALID,1009.02,VALID,0,VALID,104,VALID,0,VALID,24.6471,VALID,284,VALID,0,
2010-12-20, 00:07:04,VALID,1008.99,VALID,0,VALID,104,VALID,0,VALID,24.6276,VALID,284,VALID,0,
2010-12-20, 00:08:04,VALID,1008.98,VALID,0,VALID,104,VALID,0,VALID,24.6489,VALID,284,VALID,0,
2010-12-20, 00:09:04,VALID,1008.97,VALID,0,VALID,104,VALID,0,VALID,24.6099,VALID,284,VALID,0,
2010-12-20, 00:10:04,VALID,1008.97,VALID,0,VALID,104,VALID,0,VALID,24.6081,VALID,284,VALID,0,
2010-12-20, 00:11:04,VALID,1008.97,VALID,0,VALID,104,VALID,0,VALID,24.5905,VALID,284,VALID,0,
2010-12-20, 00:12:04,VALID,1008.97,VALID,0,VALID,104,VALID,0,VALID,24.5905,VALID,284,VALID,0,
2010-12-20, 00:13:04,VALID,1008.96,VALID,0,VALID,104,VALID,0,VALID,24.571,VALID,284,VALID,0,
2010-12-20, 00:14:04,VALID,1008.96,VALID,0,VALID,104,VALID,0,VALID,24.571,VALID,284,VALID,0,
2010-12-20, 00:15:04,VALID,1008.91,VALID,0,VALID,104,VALID,0,VALID,24.5691,VALID,284,VALID,0,
2010-12-20, 00:16:04,VALID,1008.89,VALID,0,VALID,104,VALID,0,VALID,24.5496,VALID,284,VALID,0,
2010-12-20, 00:17:04,VALID,1008.85,VALID,0,VALID,104,VALID,0,VALID,24.571,VALID,284,VALID,0,
2010-12-20, 00:18:04,VALID,1008.8,VALID,0,VALID,104,VALID,0,VALID,24.5301,VALID,284,VALID,0,
2010-12-20, 00:19:04,VALID,1008.78,VALID,0,VALID,104,VALID,0,VALID,24.5301,VALID,284,VALID,0,
2010-12-20, 00:20:04,VALID,1008.74,VALID,0,VALID,104,VALID,0,VALID,24.5106,VALID,284,VALID,0,
2010-12-20, 00:21:04,VALID,1008.73,VALID,0,VALID,104,VALID,0,VALID,24.532,VALID,284,VALID,0,
2010-12-20, 00:22:04,VALID,1008.7,VALID,0,VALID,104,VALID,0.105969,VALID,24.5106,VALID,284,VALID,0,
2010-12-20, 00:23:04,VALID,1008.69,VALID,0,VALID,104,VALID,0,VALID,24.5106,VALID,284,VALID,0,
2010-12-20, 00:24:04,VALID,1008.68,VALID,0,VALID,104,VALID,0,VALID,24.5106,VALID,284,VALID,0,
2010-12-20, 00:25:04,VALID,1008.65,VALID,0,VALID,104,VALID,0,VALID,24.5515,VALID,284,VALID,0,
2010-12-20, 00:26:04,VALID,1008.61,VALID,0,VALID,104,VALID,0,VALID,24.5515,VALID,284,VALID,0,
2010-12-20, 00:27:04,VALID,1008.6,VALID,0,VALID,104,VALID,0,VALID,24.5515,VALID,284,VALID,0,
2010-12-20, 00:28:04,VALID,1008.59,VALID,0,VALID,103.985,VALID,0,VALID,24.5496,VALID,284,VALID,0,
2010-12-20, 00:29:04,VALID,1008.57,VALID,0,VALID,103.985,VALID,0,VALID,24.571,VALID,284,VALID,0,
2010-12-20, 00:30:04,VALID,1008.56,VALID,0,VALID,103.992,VALID,0,VALID,24.571,VALID,284,VALID,0,
2010-12-20, 00:31:04,VALID,1008.53,VALID,0,VALID,103.985,VALID,0,VALID,24.571,VALID,284,VALID,0,
2010-12-20, 00:32:04,VALID,1008.48,VALID,0,VALID,103.992,VALID,0,VALID,24.5496,VALID,284,VALID,0,
2010-12-20, 00:33:04,VALID,1008.42,VALID,0,VALID,104,VALID,0,VALID,24.571,VALID,284,VALID,0,
2010-12-20, 00:34:04,VALID,1008.42,VALID,0,VALID,104,VALID,0,VALID,24.5301,VALID,284,VALID,0,
2010-12-20, 00:35:04,VALID,1008.35,VALID,0,VALID,104,VALID,0,VALID,24.5301,VALID,284,VALID,0,
2010-12-20, 00:36:04,VALID,1008.39,VALID,0,VALID,104,VALID,0,VALID,24.5106,VALID,284,VALID,0,
2010-12-20, 00:37:04,VALID,1008.4,VALID,0,VALID,104,VALID,0,VALID,24.4911,VALID,284,VALID,0,
2010-12-20, 00:38:04,VALID,1008.43,VALID,0,VALID,104,VALID,0,VALID,24.5125,VALID,284,VALID,0,
2010-12-20, 00:39:04,VALID,1008.42,VALID,0,VALID,104,VALID,0,VALID,24.5125,VALID,284,VALID,0,
2010-12-20, 00:40:04,VALID,1008.39,VALID,0,VALID,104,VALID,0,VALID,24.493,VALID,284,VALID,0,
2010-12-20, 00:41:04,VALID,1008.41,VALID,0,VALID,104,VALID,0,VALID,24.4717,VALID,284,VALID,0,
2010-12-20, 00:42:04,VALID,1008.4,VALID,0,VALID,104,VALID,0,VALID,24.4735,VALID,284,VALID,0,
2010-12-20, 00:43:04,VALID,1008.39,VALID,0,VALID,104,VALID,0,VALID,24.454,VALID,284,VALID,0,
2010-12-20, 00:44:04,VALID,1008.39,VALID,0,VALID,104,VALID,0,VALID,24.454,VALID,284,VALID,0,
2010-12-20, 00:45:04,VALID,1008.37,VALID,0,VALID,104,VALID,0,VALID,24.454,VALID,284,VALID,0,
2010-12-20, 00:46:04,VALID,1008.39,VALID,0,VALID,104,VALID,0,VALID,24.454,VALID,284,VALID,0,
2010-12-20, 00:47:04,VALID,1008.39,VALID,0,VALID,104,VALID,0,VALID,24.454,VALID,284,VALID,0,
2010-12-20, 00:48:04,VALID,1008.36,VALID,0,VALID,104,VALID,0,VALID,24.4132,VALID,284,VALID,0,
2010-12-20, 00:49:04,VALID,1008.38,VALID,0,VALID,104,VALID,0,VALID,24.4345,VALID,284,VALID,0,
2010-12-20, 00:50:04,VALID,1008.36,VALID,0,VALID,104,VALID,0,VALID,24.4345,VALID,284,VALID,0,
2010-12-20, 00:51:04,VALID,1008.42,VALID,0,VALID,104,VALID,0,VALID,24.415,VALID,284,VALID,0,
2010-12-20, 00:52:04,VALID,1008.43,VALID,0,VALID,104,VALID,0,VALID,24.415,VALID,284,VALID,0,
2010-12-20, 00:53:04,VALID,1008.47,VALID,0,VALID,104,VALID,0,VALID,24.3956,VALID,284,VALID,0,
2010-12-20, 00:54:04,VALID,1008.44,VALID,0,VALID,104,VALID,0,VALID,24.3742,VALID,284,VALID,0,
2010-12-20, 00:55:04,VALID,1008.44,VALID,0,VALID,104,VALID,0,VALID,24.3956,VALID,284,VALID,0,
2010-12-20, 00:56:04,VALID,1008.46,VALID,0,VALID,104,VALID,0,VALID,24.3761,VALID,284,VALID,0,
2010-12-20, 00:57:04,VALID,1008.48,VALID,0,VALID,104,VALID,0,VALID,24.3761,VALID,284,VALID,0,
2010-12-20, 00:58:04,VALID,1008.46,VALID,0,VALID,104,VALID,0,VALID,24.3547,VALID,284,VALID,0,
2010-12-20, 00:59:04,VALID,1008.48,VALID,0,VALID,104,VALID,0,VALID,24.3566,VALID,284,VALID,0,
2010-12-20, 01:00:04,VALID,1008.53,VALID,0,VALID,104,VALID,0,VALID,24.3566,VALID,284,VALID,0,
2010-12-20, 01:01:04,VALID,1008.53,VALID,0,VALID,104,VALID,0.105969,VALID,24.3352,VALID,284,VALID,0,
2010-12-20, 01:02:04,VALID,1008.51,VALID,0,VALID,104,VALID,0,VALID,24.3158,VALID,284,VALID,0,
2010-12-20, 01:03:04,VALID,1008.51,VALID,0,VALID,104,VALID,0,VALID,24.3352,VALID,284,VALID,0,
2010-12-20, 01:04:04,VALID,1008.51,VALID,0,VALID,104,VALID,0,VALID,24.3352,VALID,284,VALID,0,
2010-12-20, 01:05:04,VALID,1008.48,VALID,0,VALID,104,VALID,0,VALID,24.3566,VALID,284,VALID,0,
2010-12-20, 01:06:04,VALID,1008.47,VALID,0,VALID,104,VALID,0,VALID,24.3352,VALID,284,VALID,0,
2010-12-20, 01:07:04,VALID,1008.49,VALID,0,VALID,104,VALID,0.105969,VALID,24.3761,VALID,38,VALID,0.267969,
2010-12-20, 01:08:04,VALID,1008.48,VALID,0,VALID,104,VALID,0,VALID,24.3566,VALID,38,VALID,0,
2010-12-20, 01:09:04,VALID,1008.49,VALID,0,VALID,104,VALID,0,VALID,24.3547,VALID,38,VALID,0,
2010-12-20, 01:10:04,VALID,1008.49,VALID,0,VALID,104,VALID,0,VALID,24.3547,VALID,38,VALID,0,
2010-12-20, 01:11:04,VALID,1008.51,VALID,0,VALID,104,VALID,0,VALID,24.3547,VALID,38,VALID,0,
2010-12-20, 01:12:04,VALID,1008.5,VALID,0,VALID,104,VALID,0,VALID,24.3547,VALID,38,VALID,0,
2010-12-20, 01:13:04,VALID,1008.5,VALID,0,VALID,104,VALID,0,VALID,24.3742,VALID,38,VALID,0,
2010-12-20, 01:14:04,VALID,1008.49,VALID,0,VALID,104,VALID,0,VALID,24.3956,VALID,38,VALID,0,
2010-12-20, 01:15:04,VALID,1008.46,VALID,0,VALID,104,VALID,0,VALID,24.3547,VALID,38,VALID,0,
2010-12-20, 01:16:04,VALID,1008.46,VALID,0,VALID,104,VALID,0,VALID,24.3547,VALID,38,VALID,0,
2010-12-20, 01:17:04,VALID,1008.45,VALID,0,VALID,104,VALID,0,VALID,24.3761,VALID,38,VALID,0,
2010-12-20, 01:18:04,VALID,1008.39,VALID,0,VALID,104,VALID,0,VALID,24.3761,VALID,38,VALID,0,
2010-12-20, 01:19:04,VALID,1008.37,VALID,0,VALID,104,VALID,0,VALID,24.3352,VALID,38,VALID,0,
2010-12-20, 01:20:04,VALID,1008.35,VALID,0,VALID,104,VALID,0,VALID,24.3566,VALID,38,VALID,0,
2010-12-20, 01:21:04,VALID,1008.35,VALID,0,VALID,104,VALID,0,VALID,24.3566,VALID,38,VALID,0,
2010-12-20, 01:22:04,VALID,1008.31,VALID,0,VALID,104,VALID,0,VALID,24.2963,VALID,38,VALID,0,
2010-12-20, 01:23:04,VALID,1008.31,VALID,0,VALID,104,VALID,0,VALID,24.3176,VALID,38,VALID,0,
2010-12-20, 01:24:04,VALID,1008.29,VALID,0,VALID,104,VALID,0,VALID,24.3371,VALID,38,VALID,0,
2010-12-20, 01:25:04,VALID,1008.27,VALID,0,VALID,104,VALID,0.105969,VALID,24.3158,VALID,6,VALID,0,
2010-12-20, 01:26:04,VALID,1008.26,VALID,0,VALID,104,VALID,0,VALID,24.3158,VALID,6,VALID,0,
2010-12-20, 01:27:04,VALID,1008.19,VALID,0,VALID,104,VALID,0,VALID,24.2963,VALID,6,VALID,0,
2010-12-20, 01:28:04,VALID,1008.19,VALID,0,VALID,104,VALID,0,VALID,24.2963,VALID,6,VALID,0,
2010-12-20, 01:29:04,VALID,1008.2,VALID,0,VALID,104,VALID,0.105969,VALID,24.2963,VALID,39,VALID,0,
2010-12-20, 01:30:04,VALID,1008.18,VALID,0,VALID,104,VALID,0.105969,VALID,24.2963,VALID,39,VALID,0,
2010-12-20, 01:31:04,VALID,1008.2,VALID,0,VALID,104,VALID,0,VALID,24.3176,VALID,39,VALID,0.189844,
2010-12-20, 01:32:04,VALID,1008.2,VALID,0,VALID,104,VALID,0,VALID,24.2963,VALID,39,VALID,0.225391,
2010-12-20, 01:33:04,VALID,1008.19,VALID,0,VALID,104,VALID,0,VALID,24.3176,VALID,78,VALID,0.556641,
2010-12-20, 01:34:04,VALID,1008.22,VALID,0,VALID,104,VALID,0,VALID,24.3176,VALID,77,VALID,0.162109,
2010-12-20, 01:35:04,VALID,1008.23,VALID,0,VALID,104,VALID,0.105969,VALID,24.3158,VALID,77,VALID,0,
2010-12-20, 01:36:04,VALID,1008.26,VALID,0,VALID,104,VALID,0.105969,VALID,24.3371,VALID,77,VALID,0,
2010-12-20, 01:37:04,VALID,1008.23,VALID,0,VALID,104,VALID,0,VALID,24.3158,VALID,77,VALID,0,
2010-12-20, 01:38:04,VALID,1008.22,VALID,0,VALID,104,VALID,0,VALID,24.3158,VALID,77,VALID,0,
2010-12-20, 01:39:04,VALID,1008.18,VALID,0,VALID,104,VALID,0,VALID,24.3371,VALID,77,VALID,0,
2010-12-20, 01:40:04,VALID,1008.19,VALID,0,VALID,104,VALID,0,VALID,24.3371,VALID,77,VALID,0,
2010-12-20, 01:41:04,VALID,1008.19,VALID,0,VALID,104,VALID,0.105969,VALID,24.3158,VALID,77,VALID,0,
2010-12-20, 01:42:04,VALID,1008.2,VALID,0,VALID,104,VALID,0,VALID,24.3158,VALID,77,VALID,0,
2010-12-20, 01:43:04,VALID,1008.23,VALID,0,VALID,104,VALID,0,VALID,24.3158,VALID,77,VALID,0,
2010-12-20, 01:44:04,VALID,1008.23,VALID,0,VALID,104,VALID,0,VALID,24.3176,VALID,77,VALID,0,
2010-12-20, 01:45:04,VALID,1008.25,VALID,0,VALID,104,VALID,0,VALID,24.3158,VALID,77,VALID,0,
2010-12-20, 01:46:04,VALID,1008.21,VALID,0,VALID,104,VALID,0.105969,VALID,24.2963,VALID,77,VALID,0,
2010-12-20, 01:47:04,VALID,1008.19,VALID,0,VALID,104,VALID,0,VALID,24.2768,VALID,77,VALID,0,
2010-12-20, 01:48:04,VALID,1008.17,VALID,0,VALID,104,VALID,0,VALID,24.2981,VALID,77,VALID,0,
2010-12-20, 01:49:04,VALID,1008.16,VALID,0,VALID,104,VALID,0.105969,VALID,24.2573,VALID,77,VALID,0,
2010-12-20, 01:50:04,VALID,1008.15,VALID,0,VALID,104,VALID,0,VALID,24.2591,VALID,77,VALID,0,
2010-12-20, 01:51:04,VALID,1008.14,VALID,0,VALID,104,VALID,0.105969,VALID,24.2378,VALID,77,VALID,0,
2010-12-20, 01:52:04,VALID,1008.14,VALID,0,VALID,104,VALID,0,VALID,24.2396,VALID,77,VALID,0,
2010-12-20, 01:53:04,VALID,1008.17,VALID,0,VALID,104,VALID,0,VALID,24.2183,VALID,77,VALID,0,
2010-12-20, 01:54:04,VALID,1008.13,VALID,0,VALID,104,VALID,0,VALID,24.1988,VALID,77,VALID,0,
2010-12-20, 01:55:04,VALID,1008.12,VALID,0,VALID,104,VALID,0,VALID,24.1988,VALID,77,VALID,0,
2010-12-20, 01:56:04,VALID,1008.12,VALID,0,VALID,104,VALID,0,VALID,24.2007,VALID,77,VALID,0,
2010-12-20, 01:57:04,VALID,1008.11,VALID,0,VALID,104,VALID,0,VALID,24.1793,VALID,77,VALID,0,
2010-12-20, 01:58:04,VALID,1008.12,VALID,0,VALID,104,VALID,0,VALID,24.1599,VALID,77,VALID,0,
2010-12-20, 01:59:04,VALID,1008.09,VALID,0,VALID,104,VALID,0,VALID,24.1812,VALID,77,VALID,0,
2010-12-20, 02:00:04,VALID,1008.11,VALID,0,VALID,104,VALID,0,VALID,24.1812,VALID,77,VALID,0,
2010-12-20, 02:01:04,VALID,1008.08,VALID,0,VALID,104,VALID,0,VALID,24.1599,VALID,77,VALID,0,
2010-12-20, 02:02:04,VALID,1008.07,VALID,0,VALID,104,VALID,0,VALID,24.2007,VALID,77,VALID,0,
2010-12-20, 02:03:04,VALID,1008.04,VALID,0,VALID,104,VALID,0,VALID,24.1812,VALID,77,VALID,0,
2010-12-20, 02:04:04,VALID,1008.06,VALID,0,VALID,104,VALID,0,VALID,24.1812,VALID,77,VALID,0,
2010-12-20, 02:05:04,VALID,1008.04,VALID,0,VALID,104,VALID,0,VALID,24.1599,VALID,77,VALID,0,
2010-12-20, 02:06:04,VALID,1008.05,VALID,0,VALID,104,VALID,0.105969,VALID,24.1404,VALID,77,VALID,0,
2010-12-20, 02:07:04,VALID,1008.05,VALID,0,VALID,104,VALID,0,VALID,24.1404,VALID,77,VALID,0,
2010-12-20, 02:08:04,VALID,1008.07,VALID,0,VALID,104,VALID,0,VALID,24.1404,VALID,77,VALID,0,
2010-12-20, 02:09:04,VALID,1008.05,VALID,0,VALID,104,VALID,0,VALID,24.1599,VALID,77,VALID,0,
2010-12-20, 02:10:04,VALID,1008.08,VALID,0,VALID,104,VALID,0,VALID,24.1599,VALID,77,VALID,0,
2010-12-20, 02:11:04,VALID,1008.07,VALID,0,VALID,104,VALID,0,VALID,24.1617,VALID,77,VALID,0,
2010-12-20, 02:12:04,VALID,1008.09,VALID,0,VALID,104,VALID,0,VALID,24.1599,VALID,77,VALID,0,
2010-12-20, 02:13:04,VALID,1008.07,VALID,0,VALID,104,VALID,0.105969,VALID,24.1812,VALID,77,VALID,0,
2010-12-20, 02:14:04,VALID,1008.05,VALID,0,VALID,104,VALID,0.105969,VALID,24.1599,VALID,77,VALID,0,
2010-12-20, 02:15:04,VALID,1008.04,VALID,0,VALID,104,VALID,0.105969,VALID,24.1793,VALID,77,VALID,0,
2010-12-20, 02:16:04,VALID,1008.02,VALID,0,VALID,104,VALID,0,VALID,24.1599,VALID,77,VALID,0,
2010-12-20, 02:17:04,VALID,1008.01,VALID,0,VALID,104,VALID,0,VALID,24.1599,VALID,77,VALID,0,
2010-12-20, 02:18:04,VALID,1007.97,VALID,0,VALID,104,VALID,0,VALID,24.1599,VALID,77,VALID,0,
2010-12-20, 02:19:04,VALID,1007.94,VALID,0,VALID,104,VALID,0,VALID,24.1599,VALID,77,VALID,0,
2010-12-20, 02:20:04,VALID,1007.93,VALID,0,VALID,104,VALID,0.105969,VALID,24.1617,VALID,77,VALID,0,
2010-12-20, 02:21:04,VALID,1007.89,VALID,0,VALID,104,VALID,0,VALID,24.1617,VALID,77,VALID,0,
2010-12-20, 02:22:04,VALID,1007.88,VALID,0,VALID,104,VALID,0,VALID,24.1599,VALID,77,VALID,0,
2010-12-20, 02:23:04,VALID,1007.9,VALID,0,VALID,104,VALID,0,VALID,24.1599,VALID,77,VALID,0,
2010-12-20, 02:24:04,VALID,1007.86,VALID,0,VALID,104,VALID,0,VALID,24.1812,VALID,77,VALID,0,
2010-12-20, 02:25:05,VALID,1007.88,VALID,0,VALID,104,VALID,0,VALID,24.1793,VALID,77,VALID,0,
2010-12-20, 02:26:05,VALID,1007.91,VALID,0,VALID,104,VALID,0,VALID,24.1812,VALID,77,VALID,0,
2010-12-20, 02:27:05,VALID,1007.9,VALID,0,VALID,104,VALID,0,VALID,24.2007,VALID,77,VALID,0,
2010-12-20, 02:28:05,VALID,1007.92,VALID,0,VALID,104,VALID,0,VALID,24.2202,VALID,77,VALID,0,
2010-12-20, 02:29:05,VALID,1007.9,VALID,0,VALID,104,VALID,0,VALID,24.2007,VALID,77,VALID,0,
2010-12-20, 02:30:05,VALID,1007.9,VALID,0,VALID,104,VALID,0,VALID,24.2202,VALID,77,VALID,0,
2010-12-20, 02:31:05,VALID,1007.91,VALID,0,VALID,104,VALID,0,VALID,24.2202,VALID,77,VALID,0,
2010-12-20, 02:32:05,VALID,1007.92,VALID,0,VALID,104,VALID,0,VALID,24.1988,VALID,77,VALID,0,
2010-12-20, 02:33:05,VALID,1007.9,VALID,0,VALID,104,VALID,0.105969,VALID,24.1988,VALID,77,VALID,0,
2010-12-20, 02:34:05,VALID,1007.93,VALID,0,VALID,104,VALID,0,VALID,24.1793,VALID,77,VALID,0,
2010-12-20, 02:35:05,VALID,1007.94,VALID,0,VALID,104,VALID,0,VALID,24.1793,VALID,77,VALID,0,
2010-12-20, 02:36:05,VALID,1007.94,VALID,0,VALID,104,VALID,0.105969,VALID,24.1988,VALID,77,VALID,0,
2010-12-20, 02:37:05,VALID,1007.93,VALID,0,VALID,104,VALID,0.105969,VALID,24.1793,VALID,77,VALID,0,
2010-12-20, 02:38:05,VALID,1007.97,VALID,0,VALID,104,VALID,0.105969,VALID,24.1793,VALID,77,VALID,0,
2010-12-20, 02:39:05,VALID,1007.95,VALID,0,VALID,104,VALID,0,VALID,24.2007,VALID,77,VALID,0,
2010-12-20, 02:40:05,VALID,1007.95,VALID,0,VALID,104,VALID,0,VALID,24.1812,VALID,77,VALID,0,
2010-12-20, 02:41:05,VALID,1007.97,VALID,0,VALID,104,VALID,0,VALID,24.183,VALID,77,VALID,0,
2010-12-20, 02:42:05,VALID,1007.96,VALID,0,VALID,104,VALID,0,VALID,24.1812,VALID,77,VALID,0,
2010-12-20, 02:43:05,VALID,1007.97,VALID,0,VALID,104,VALID,0,VALID,24.183,VALID,77,VALID,0,
2010-12-20, 02:44:05,VALID,1007.97,VALID,0,VALID,104,VALID,0,VALID,24.183,VALID,77,VALID,0,
2010-12-20, 02:45:05,VALID,1007.99,VALID,0,VALID,104,VALID,0,VALID,24.1617,VALID,77,VALID,0,
2010-12-20, 02:46:05,VALID,1008,VALID,0,VALID,104,VALID,0,VALID,24.2025,VALID,77,VALID,0,
2010-12-20, 02:47:05,VALID,1008.01,VALID,0,VALID,104,VALID,0,VALID,24.2025,VALID,77,VALID,0,
2010-12-20, 02:48:05,VALID,1007.99,VALID,0,VALID,104,VALID,0,VALID,24.183,VALID,77,VALID,0,
2010-12-20, 02:49:05,VALID,1008.01,VALID,0,VALID,104,VALID,0,VALID,24.222,VALID,77,VALID,0,
2010-12-20, 02:50:05,VALID,1008.03,VALID,0,VALID,104,VALID,0,VALID,24.2415,VALID,77,VALID,0,
2010-12-20, 02:51:05,VALID,1008.04,VALID,0,VALID,104,VALID,0,VALID,24.2396,VALID,77,VALID,0,
2010-12-20, 02:52:05,VALID,1008.08,VALID,0,VALID,104,VALID,0,VALID,24.261,VALID,77,VALID,0,
2010-12-20, 02:53:05,VALID,1008.06,VALID,0,VALID,104,VALID,0,VALID,24.2415,VALID,77,VALID,0,
2010-12-20, 02:54:05,VALID,1008.07,VALID,0,VALID,104,VALID,0,VALID,24.2415,VALID,77,VALID,0,
2010-12-20, 02:55:05,VALID,1008.07,VALID,0,VALID,104,VALID,0.105969,VALID,24.2591,VALID,77,VALID,0,
2010-12-20, 02:56:05,VALID,1008.06,VALID,0,VALID,104,VALID,0,VALID,24.2591,VALID,77,VALID,0,
2010-12-20, 02:57:05,VALID,1008.04,VALID,0,VALID,104,VALID,0,VALID,24.2183,VALID,77,VALID,0,
2010-12-20, 02:58:05,VALID,1008.06,VALID,0,VALID,104,VALID,0.105969,VALID,24.2183,VALID,77,VALID,0,
2010-12-20, 02:59:05,VALID,1008.05,VALID,0,VALID,104,VALID,0.105969,VALID,24.2183,VALID,77,VALID,0,
2010-12-20, 03:00:05,VALID,1008.08,VALID,0,VALID,104,VALID,0,VALID,24.2396,VALID,77,VALID,0,
2010-12-20, 03:01:05,VALID,1008.1,VALID,0,VALID,104,VALID,0,VALID,24.2396,VALID,77,VALID,0,
2010-12-20, 03:02:05,VALID,1008.09,VALID,0,VALID,104,VALID,0,VALID,24.2396,VALID,77,VALID,0,
2010-12-20, 03:03:05,VALID,1008.08,VALID,0,VALID,104,VALID,0.105969,VALID,24.2202,VALID,77,VALID,0,
2010-12-20, 03:04:05,VALID,1008.1,VALID,0,VALID,104,VALID,0,VALID,24.1988,VALID,77,VALID,0,
2010-12-20, 03:05:05,VALID,1008.1,VALID,0,VALID,104,VALID,0,VALID,24.1793,VALID,77,VALID,0,
2010-12-20, 03:06:05,VALID,1008.09,VALID,0,VALID,104,VALID,0,VALID,24.1812,VALID,77,VALID,0,
2010-12-20, 03:07:05,VALID,1008.07,VALID,0,VALID,104,VALID,0.105969,VALID,24.1599,VALID,77,VALID,0,
2010-12-20, 03:08:05,VALID,1008.03,VALID,0,VALID,104,VALID,0.105969,VALID,24.1617,VALID,77,VALID,0,
2010-12-20, 03:09:05,VALID,1008.01,VALID,0,VALID,104,VALID,0,VALID,24.1617,VALID,77,VALID,0,
2010-12-20, 03:10:05,VALID,1008.01,VALID,0,VALID,104,VALID,0,VALID,24.1617,VALID,77,VALID,0,
2010-12-20, 03:11:05,VALID,1008,VALID,0,VALID,104,VALID,0.105969,VALID,24.1812,VALID,77,VALID,0,
2010-12-20, 03:12:05,VALID,1007.99,VALID,0,VALID,104,VALID,0,VALID,24.1617,VALID,77,VALID,0,
2010-12-20, 03:13:05,VALID,1008.01,VALID,0,VALID,104,VALID,0,VALID,24.1812,VALID,77,VALID,0,
2010-12-20, 03:14:05,VALID,1008.03,VALID,0,VALID,104,VALID,0.105969,VALID,24.1404,VALID,77,VALID,0,
2010-12-20, 03:15:05,VALID,1008.04,VALID,0,VALID,104,VALID,0,VALID,24.1422,VALID,77,VALID,0,
2010-12-20, 03:16:05,VALID,1008.07,VALID,0,VALID,104,VALID,0,VALID,24.1227,VALID,77,VALID,0,
2010-12-20, 03:17:05,VALID,1008.08,VALID,0,VALID,104,VALID,0.105969,VALID,24.1227,VALID,77,VALID,0,
2010-12-20, 03:18:05,VALID,1008.07,VALID,0,VALID,104,VALID,0.105969,VALID,24.1227,VALID,77,VALID,0,
2010-12-20, 03:19:05,VALID,1008.06,VALID,0,VALID,104,VALID,0,VALID,24.0819,VALID,77,VALID,0,
2010-12-20, 03:20:05,VALID,1008.05,VALID,0,VALID,104,VALID,0.105969,VALID,24.1032,VALID,77,VALID,0,
2010-12-20, 03:21:05,VALID,1008.06,VALID,0,VALID,104,VALID,0.105969,VALID,24.1227,VALID,77,VALID,0,
2010-12-20, 03:22:05,VALID,1008.08,VALID,0,VALID,104,VALID,0.105969,VALID,24.1227,VALID,77,VALID,0,
2010-12-20, 03:23:05,VALID,1008.06,VALID,0,VALID,104,VALID,0,VALID,24.0837,VALID,77,VALID,0,
2010-12-20, 03:24:05,VALID,1008.05,VALID,0,VALID,104,VALID,0,VALID,24.1032,VALID,77,VALID,0,
2010-12-20, 03:25:05,VALID,1008.06,VALID,0,VALID,104,VALID,0,VALID,24.1032,VALID,77,VALID,0,
2010-12-20, 03:26:05,VALID,1008.04,VALID,0,VALID,104,VALID,0,VALID,24.1014,VALID,77,VALID,0,
2010-12-20, 03:27:05,VALID,1008.02,VALID,0,VALID,104,VALID,0,VALID,24.1227,VALID,77,VALID,0,
2010-12-20, 03:28:05,VALID,1008,VALID,0,VALID,104,VALID,0.105969,VALID,24.1014,VALID,77,VALID,0,
2010-12-20, 03:29:05,VALID,1008,VALID,0,VALID,104,VALID,0,VALID,24.1227,VALID,77,VALID,0,
2010-12-20, 03:30:05,VALID,1008,VALID,0,VALID,104,VALID,0.105969,VALID,24.0837,VALID,77,VALID,0,
2010-12-20, 03:31:05,VALID,1007.99,VALID,0,VALID,104,VALID,0,VALID,24.0837,VALID,77,VALID,0,
2010-12-20, 03:32:05,VALID,1008,VALID,0,VALID,104,VALID,0,VALID,24.0837,VALID,77,VALID,0,
2010-12-20, 03:33:05,VALID,1007.99,VALID,0,VALID,104,VALID,0.105969,VALID,24.0643,VALID,77,VALID,0,
2010-12-20, 03:34:05,VALID,1007.99,VALID,0,VALID,104,VALID,0.105969,VALID,24.0643,VALID,77,VALID,0,
2010-12-20, 03:35:05,VALID,1007.98,VALID,0,VALID,104,VALID,0,VALID,24.0661,VALID,77,VALID,0,
2010-12-20, 03:36:05,VALID,1007.96,VALID,0,VALID,104,VALID,0.105969,VALID,24.0253,VALID,77,VALID,0,
2010-12-20, 03:37:05,VALID,1007.95,VALID,0,VALID,104,VALID,0.105969,VALID,24.0253,VALID,77,VALID,0,
2010-12-20, 03:38:05,VALID,1007.96,VALID,0,VALID,104,VALID,0.105969,VALID,24.0253,VALID,77,VALID,0,
2010-12-20, 03:39:05,VALID,1007.93,VALID,0,VALID,104,VALID,0.105969,VALID,24.0253,VALID,77,VALID,0,
2010-12-20, 03:40:05,VALID,1007.94,VALID,0,VALID,104,VALID,0,VALID,24.0253,VALID,77,VALID,0,
2010-12-20, 03:41:05,VALID,1007.92,VALID,0,VALID,104,VALID,0.105969,VALID,24.0058,VALID,77,VALID,0,
2010-12-20, 03:42:05,VALID,1007.91,VALID,0,VALID,104,VALID,0.105969,VALID,24.0058,VALID,77,VALID,0,
2010-12-20, 03:43:05,VALID,1007.91,VALID,0,VALID,104,VALID,0,VALID,23.9845,VALID,77,VALID,0,
2010-12-20, 03:44:05,VALID,1007.83,VALID,0,VALID,104,VALID,0,VALID,23.9845,VALID,77,VALID,0,
2010-12-20, 03:45:05,VALID,1007.79,VALID,0,VALID,104,VALID,0.105969,VALID,23.965,VALID,77,VALID,0,
2010-12-20, 03:46:05,VALID,1007.8,VALID,0,VALID,104,VALID,0.105969,VALID,23.965,VALID,77,VALID,0,
2010-12-20, 03:47:05,VALID,1007.79,VALID,0,VALID,104,VALID,0.105969,VALID,23.965,VALID,77,VALID,0,
2010-12-20, 03:48:05,VALID,1007.8,VALID,0,VALID,104,VALID,0,VALID,23.9455,VALID,77,VALID,0,
2010-12-20, 03:49:05,VALID,1007.81,VALID,0,VALID,104,VALID,0,VALID,23.9455,VALID,77,VALID,0,
2010-12-20, 03:50:05,VALID,1007.82,VALID,0,VALID,104,VALID,0.105969,VALID,23.9455,VALID,77,VALID,0,
2010-12-20, 03:51:05,VALID,1007.82,VALID,0,VALID,104,VALID,0.105969,VALID,23.9473,VALID,77,VALID,0,
2010-12-20, 03:52:05,VALID,1007.81,VALID,0,VALID,104,VALID,0.105969,VALID,23.926,VALID,77,VALID,0,
2010-12-20, 03:53:05,VALID,1007.8,VALID,0,VALID,104,VALID,0,VALID,23.9473,VALID,77,VALID,0,
2010-12-20, 03:54:05,VALID,1007.77,VALID,0,VALID,104,VALID,0,VALID,23.9065,VALID,77,VALID,0,
2010-12-20, 03:55:05,VALID,1007.79,VALID,0,VALID,104,VALID,0,VALID,23.9278,VALID,77,VALID,0,
2010-12-20, 03:56:05,VALID,1007.79,VALID,0,VALID,104,VALID,0.105969,VALID,23.9065,VALID,77,VALID,0,
2010-12-20, 03:57:05,VALID,1007.81,VALID,0,VALID,104,VALID,0,VALID,23.926,VALID,77,VALID,0,
2010-12-20, 03:58:05,VALID,1007.82,VALID,0,VALID,104,VALID,0.105969,VALID,23.9065,VALID,77,VALID,0,
2010-12-20, 03:59:05,VALID,1007.83,VALID,0,VALID,104,VALID,0.105969,VALID,23.9065,VALID,77,VALID,0,
2010-12-20, 04:00:05,VALID,1007.84,VALID,0,VALID,104,VALID,0,VALID,23.9065,VALID,77,VALID,0,
2010-12-20, 04:01:05,VALID,1007.85,VALID,0,VALID,104,VALID,0.105969,VALID,23.9065,VALID,77,VALID,0,
2010-12-20, 04:02:05,VALID,1007.82,VALID,0,VALID,104,VALID,0.105969,VALID,23.9278,VALID,77,VALID,0,
2010-12-20, 04:03:05,VALID,1007.85,VALID,0,VALID,104,VALID,0.105969,VALID,23.8871,VALID,77,VALID,0,
2010-12-20, 04:04:05,VALID,1007.84,VALID,0,VALID,104,VALID,0,VALID,23.8889,VALID,77,VALID,0,
2010-12-20, 04:05:05,VALID,1007.84,VALID,0,VALID,104,VALID,0,VALID,23.8481,VALID,77,VALID,0,
2010-12-20, 04:06:05,VALID,1007.81,VALID,0,VALID,104,VALID,0.105969,VALID,23.8481,VALID,77,VALID,0,
2010-12-20, 04:07:05,VALID,1007.82,VALID,0,VALID,104,VALID,0.105969,VALID,23.8694,VALID,77,VALID,0,